Starlink 30295

operational
NORAD ID: 57683 Int'l Des: 2023-124 Owner: SPXS Country: US Constellation: starlink
LEOCIRCULAR

About Starlink 30295

Description loading...

Live Position

Loading 3D Globe...

Upcoming Passes

Altitude History

Altitude vs Time

uPlot chart will show altitude changes over time

Two-Line Element Set

1 57683U 23124W 25353.94029499 -.00000232 00000-0 42819-5 0 9992
2 57683 53.1600 217.4997 0001392 97.2242 262.8917 15.30188409131353
Epoch: Dec 19, 2025 • Age: 8 hours

Current Status

Altitude 487.8 km
Velocity 7.62 km/s
Sub-Earth Point -36.45°S, 0.59°E
Launch Date Aug 22, 2023
Age 2.3 years
Type internet

Technical Details

Classification Payload
Mass 730.00 kg
Dry Mass 700.00 kg
Total Mass 730.00 kg
Length 0.30 m
Diameter 4.10 m
Span 29.00 m
Shape Box + pan
Manufacturer SPXS
Bus Type Starlink V2M
Phase Status In Orbit
Owner/State SPXS/US

Large Constellations

Loading constellations...